Location: Namasale
(1.5000°N, 32.6167°E)
Time: 11:51:02
(UTC+00:00)

Vanguard 1 Rocket - Visible Passes

Search period start: 18 April 2021 00:00
Search period end: 28 April 2021 00:00
Orbit: 653 x 4223 km, 34.3° (Epoch: 17 April)

Date Brightness Start Highest point End Pass type
(mag) Time Alt. Az. Time Alt. Az. Time Alt. Az.
18 Apr 11.6 02:24:40 10° SW 02:41:46 20° S 02:56:07 10° SE visible
18 Apr 9.2 17:34:39 10° NNW 17:41:23 34° NE 17:42:49 33° ENE visible
18 Apr 10.4 19:58:06 10° WNW 20:00:07 20° WNW 20:00:07 20° WNW visible
18 Apr 11.6 22:56:38 18° SSE 22:56:38 18° SSE 23:02:26 10° SSE visible
19 Apr 11.4 01:13:55 17° SSW 01:22:46 20° S 01:38:57 10° SE visible
19 Apr 9.7 16:26:30 10° N 16:30:09 14° NE 16:34:52 10° ENE visible
19 Apr 9.0 18:47:18 10° NW 18:53:01 57° NW 18:53:01 57° NW visible
20 Apr 11.4 00:06:31 21° S 00:06:31 21° S 00:21:37 10° SE visible
20 Apr 11.5 02:28:14 10° SSW 02:46:42 23° SSE 03:01:38 10° ESE visible
20 Apr 8.8 17:37:18 10° NNW 17:44:06 46° NE 17:45:56 43° ENE visible
20 Apr 10.5 20:01:37 10° WNW 20:03:14 18° W 20:03:14 18° W visible
20 Apr 11.6 22:59:08 16° SSE 22:59:08 16° SSE 23:04:51 10° SSE visible
21 Apr 11.5 01:16:24 15° SSW 01:28:00 20° S 01:44:08 10° SE visible
21 Apr 9.3 16:28:19 10° N 16:33:03 21° NE 16:38:53 12° E visible
21 Apr 9.0 18:50:28 10° WNW 18:56:11 57° WNW 18:56:11 57° WNW visible
22 Apr 11.4 00:09:02 20° S 00:09:02 20° S 00:25:39 10° SE visible
22 Apr 11.5 02:31:12 10° SSW 02:51:18 27° SSE 03:07:00 10° ESE visible
22 Apr 8.4 17:40:09 10° NW 17:46:52 64° NE 17:49:10 52° E visible
22 Apr 10.6 20:05:27 10° W 20:06:28 14° W 20:06:28 14° W visible
22 Apr 11.6 23:01:42 16° SSE 23:01:42 16° SSE 23:07:39 10° SSE visible
23 Apr 11.5 01:18:58 14° SSW 01:33:05 22° SSE 01:49:43 10° SE visible
23 Apr 8.8 16:30:39 10° NNW 16:35:51 30° NE 16:42:09 15° E visible
23 Apr 9.2 18:53:53 10° WNW 18:59:27 48° WSW 18:59:27 48° WSW visible
24 Apr 11.4 00:11:39 19° S 00:14:05 19° S 00:30:31 10° SE visible
24 Apr 11.4 02:33:45 10° SSW 02:55:32 32° SSE 03:12:00 10° E visible
24 Apr 8.2 17:43:12 10° NW 17:49:48 88° NE 17:52:27 55° SE visible
24 Apr 10.8 20:09:37 10° W 20:09:46 10° W 20:09:46 10° W visible
24 Apr 11.6 23:04:22 15° SSE 23:04:22 15° SSE 23:11:05 10° SE visible
25 Apr 11.5 01:21:38 14° SSW 01:37:52 25° SSE 01:55:21 10° ESE visible
25 Apr 8.3 16:33:17 10° NNW 16:38:38 44° NE 16:45:29 17° ESE visible
25 Apr 9.5 18:57:35 10° W 19:02:47 37° WSW 19:02:47 37° WSW visible
26 Apr 11.4 00:14:23 19° S 00:19:14 20° S 00:36:05 10° SE visible
26 Apr 11.2 02:36:04 10° SW 02:59:24 38° SSE 03:16:35 10° E visible
26 Apr 8.4 17:46:28 10° WNW 17:52:55 67° SSW 17:55:48 48° SSE visible
26 Apr 11.6 23:07:10 16° SSE 23:07:10 16° SSE 23:15:21 10° SE visible
27 Apr 11.4 01:24:27 14° SSW 01:42:15 29° SSE 02:00:42 10° ESE visible
27 Apr 7.8 16:36:08 10° NW 16:41:31 67° NE 16:48:50 17° ESE visible
27 Apr 9.8 19:01:36 10° W 19:06:08 28° SW 19:06:08 28° SW visible
